Tracking 29065 objects as of 22-Jul-2024
HD Live streaming from Space Station
objects crossing your sky now

COSMOS 1275 DEB

Track COSMOS 1275 DEB now!
10-day predictions


NORAD ID: 17642
Int'l Code: 1981-053LQ
Perigee: 760.6 km
Apogee: 813.8 km
Inclination: 82.9 °
Period: 100.5 minutes
Semi major axis: 7158 km
RCS: 0.0092 m2 (small)
Launch date: June 4, 1981
Source: Commonwealth of Independent States (former USSR) (CIS)
Launch site: PLESETSK MISSILE AND SPACE COMPLEX (PKMTR)

Note: This is SATELLITE DEBRIS
Your satellite tracking list
Your tracking list is empty




NASA's NSSDC Master Catalog

Two Line Element Set (TLE):
1 17642U 81053LM  24203.79609484  .00010053  00000-0  36016-2 0  9992
2 17642  82.8674 330.8039 0037204 107.0168 253.5102 14.33494665 36778
Source of the keplerian elements: AFSPC